Hill City, KS

7:26 PM CDT on March 25, 2017 (GMT -0500)
Hill City Municipal

Weather History for KHLC - May, 2012

Change the Weather History Date:

Friday, May 25, 2012

  Actual Average Record
Temperature  
Mean Temperature 66 °F 66 °F  
Max Temperature 76 °F 78 °F 99 °F (1964)
Min Temperature 55 °F 53 °F 37 °F (2002)
Degree Days  
Heating Degree Days 2    
Growing Degree Days 13 (Base 50)    
Moisture  
Dew Point 52 °F    
Average Humidity 63    
Maximum Humidity 84    
Minimum Humidity 31    
Precipitation  
Precipitation 0.00 in 0.12 in 0.64 in (1997)
Month to date precipitation T 3.01  
Year to date precipitation 3.87 7.73  
Sea Level Pressure  
Sea Level Pressure 29.80 in    
Wind  
Wind Speed 14 mph (ENE)    
Max Wind Speed 21 mph    
Max Gust Speed 31 mph    
Visibility 10 miles    
Events      
T = Trace of Precipitation, MM = Missing Value Source: NWS Daily Summary

Daily Weather History Graph

Daily Weather History Graph

Search for Another Location

Airport or City:

Trip Planner

Search our weather history database for the weather conditions in past years. The results will help you decide how hot, cold, wet, or windy it might be!

Date:

Astronomy

May. 25, 2012 Rise Set
Actual Time 6:17 AM CDT 8:55 PM CDT
Civil Twilight 5:46 AM CDT 9:26 PM CDT
Nautical Twilight 5:07 AM CDT 10:05 PM CDT
Astronomical Twilight 4:23 AM CDT 10:49 PM CDT
Moon 10:18 AM CDT (5/25) No Moon Set
Length of Visible Light 15h 40m
Length of Day
14h 37m
Waxing Crescent, 20% of the Moon is Illuminated
May 25
Waxing Crescent
May 28
First Quarter
Jun 4
Full
Jun 11
Last Quarter
Jun 19
New

Hourly Weather History & Observations

Time (CDT) Temp. Dew Point Humidity Pressure Visibility Wind Dir Wind Speed Gust Speed Precip Events Conditions
12:53 AM 63.0 °F 42.1 °F 46% 29.79 in 10.0 mi NE 17.3 mph 24.2 mph N/A   Overcast
1:53 AM 61.0 °F 45.0 °F 56% 29.80 in 10.0 mi NNE 15.0 mph 24.2 mph N/A   Mostly Cloudy
2:53 AM 59.0 °F 46.9 °F 64% 29.83 in 10.0 mi NNE 13.8 mph 20.7 mph N/A   Overcast
3:53 AM 57.9 °F 46.9 °F 67% 29.84 in 10.0 mi ENE 9.2 mph 20.7 mph N/A   Overcast
4:53 AM 57.0 °F 46.9 °F 69% 29.85 in 10.0 mi NE 12.7 mph 20.7 mph N/A   Overcast
5:53 AM 57.0 °F 46.0 °F 67% 29.85 in 10.0 mi ENE 9.2 mph - N/A   Overcast
6:53 AM 55.9 °F 46.9 °F 72% 29.83 in 10.0 mi NE 10.4 mph - N/A   Mostly Cloudy
7:53 AM 59.0 °F 46.9 °F 64% 29.82 in 10.0 mi East 11.5 mph - N/A   Overcast
8:53 AM 64.0 °F 46.0 °F 52% 29.83 in 10.0 mi East 13.8 mph 20.7 mph N/A   Overcast
9:53 AM 66.9 °F 44.1 °F 44% 29.83 in 10.0 mi East 12.7 mph 23.0 mph N/A   Overcast
10:53 AM 69.1 °F 42.1 °F 38% 29.85 in 10.0 mi East 15.0 mph 21.9 mph N/A   Overcast
11:53 AM 71.1 °F 39.0 °F 31% 29.83 in 10.0 mi East 20.7 mph 31.1 mph N/A   Overcast
12:53 PM 71.1 °F 46.9 °F 42% 29.81 in 10.0 mi East 20.7 mph 27.6 mph N/A   Overcast
1:53 PM 70.0 °F 53.1 °F 55% 29.82 in 10.0 mi East 16.1 mph 24.2 mph N/A   Overcast
2:13 PM 69.8 °F 55.4 °F 60% 29.86 in 10.0 mi East 17.3 mph 28.8 mph N/A   Overcast
2:53 PM 69.1 °F 57.0 °F 65% 29.81 in 10.0 mi East 15.0 mph 26.5 mph N/A   Overcast
3:53 PM 70.0 °F 57.9 °F 65% 29.78 in 10.0 mi East 19.6 mph 27.6 mph N/A   Overcast
4:53 PM 71.1 °F 60.1 °F 68% 29.77 in 10.0 mi East 15.0 mph 21.9 mph N/A   Overcast
5:53 PM 70.0 °F 60.1 °F 71% 29.75 in 10.0 mi ENE 13.8 mph 23.0 mph N/A   Overcast
6:53 PM 70.0 °F 60.1 °F 71% 29.74 in 10.0 mi ENE 15.0 mph 20.7 mph N/A   Overcast
7:53 PM 70.0 °F 60.1 °F 71% 29.74 in 10.0 mi NE 11.5 mph 19.6 mph N/A   Overcast
8:53 PM 70.0 °F 60.1 °F 71% 29.74 in 10.0 mi NE 12.7 mph - N/A   Overcast
9:38 PM 68.0 °F 60.8 °F 78% 29.79 in 10.0 mi NE 9.2 mph - N/A   Partly Cloudy
9:53 PM 68.0 °F 60.1 °F 76% 29.74 in 10.0 mi ENE 11.5 mph - N/A   Partly Cloudy
10:53 PM 69.1 °F 62.1 °F 78% 29.74 in 10.0 mi ENE 9.2 mph - N/A   Scattered Clouds
11:53 PM 69.1 °F 64.0 °F 84% 29.73 in 10.0 mi East 10.4 mph - N/A   Clear